Weather in Palolem

India     14°50′37″N   74°05′55″E
temp.,
°C
wind,
m/s
gust,
m/s
humid.,
%
clouds,
%
prec.,
mm/h
press.,
hPa
HPBL,
m
24 september, fri
fri2423:30+27nw5684100 7.2 1009521
02:30+26wnw5684100 4.3 1008507
05:30+26nw458498 8.0 1008482
08:30+27nw4482100 1.3 1010544
11:30+27nw448198 1.8 1009521
14:30+27nw4581100 1.1 1006469
17:30+27wnw5683100 3.6 1006415
20:30+27nw4582100 3.2 1009352
25 september, sat
sat2523:30+27nw348094 4.9 1009430
02:30+27wnw338194 1.4 1008317
05:30+27nw3380100 2.8 1008430
08:30+27nw3380100 0.3 1010496
11:30+27wnw4480100 0.6 1010556
14:30+27wnw457886 0.6 1007601
17:30+28wnw557876 1.1 1007745
20:30+27wnw5680100 1.1 1009579
26 september, sun
sun2623:30+27wnw558195 3.6 1009458
02:30+27wnw5681100 2.4 1007544
05:30+27wnw568098 3.9 1006622
08:30+27nw4580100 2.4 1008442
11:30+28wnw5579100 3.1 1008642
14:30+28wnw5679100 0.2 1005705
17:30+28nw5680100 0.4 1005708
20:30+27nw458111 0.3 1007597
27 september, mon
mon2723:30+27nw457997 0.6 1007690
02:30+27nw4579100 0.1 1005712
05:30+27nw4578100 0.3 1005687
08:30+27nw3377100 0.1 1007603
11:30+27wnw3376100 0.1 1006609
14:30+27w3476100 0.1 1003682
17:30+27wnw4477100 1.0 1004541
20:30+27w2276100 0.3 1006310
28 september, tue
tue2823:30+27w3476100 0.9 1006425
02:30+26wnw4481100 2.3 1004362
05:30+26w348092 5.5 1005297
08:30+26w3479100 2.8 1007296
11:30+27wsw4580100 6.1 1007521
14:30+27wsw6781100 4.7 1005663
17:30+27wsw6781100 9.7 1005687
20:30+27wsw678282 4.3 1007629